DW4360 Weather Reports


time (UTC)temp
C
wind
direction
speed
KPH
gust
KPH
rain 1hr
cm
rain 24hr
cm
rain mn
cm
humidity
%
barometer
mb
20260905182710 20 328 0.0 0.0 0.00 0.00 0.00 70 1016.2
20260905181709 20 336 0.0 0.0 0.00 0.00 0.00 72 1016.2
20260905180708 19 345 0.0 0.0 0.00 0.00 0.00 73 1016.3
20260905175707 18 325 1.6 0.0 0.00 0.00 0.00 74 1016.3
20260905172704 17 329 0.0 0.0 0.00 0.00 0.00 82 1016.3
20260905171702 16 334 0.0 0.0 0.00 0.00 0.00 83 1016.4
20260905165700 15 55 0.0 0.0 0.00 0.00 0.00 89 1016.4
20260905164659 14 158 0.0 0.0 0.00 0.00 0.00 92 1016.4
20260905162657 14 172 0.0 0.0 0.00 0.00 0.00 93 1016.4
20260905161656 13 174 0.0 0.0 0.00 0.00 0.00 93 1016.5
20260905160656 14 175 0.0 0.0 0.00 0.00 0.00 94 1016.6
20260905155654 14 174 0.0 0.0 0.00 0.00 0.00 94 1016.5
20260905154654 14 174 0.0 0.0 0.00 0.00 0.00 94 1016.5
20260905153653 14 174 0.0 0.0 0.00 0.00 0.00 94 1016.5
20260905152651 13 175 0.0 0.0 0.00 0.00 0.18 94 1016.5
20260905151651 13 174 0.0 0.0 0.00 0.00 0.18 94 1016.5
20260905150649 13 174 0.0 0.0 0.00 0.00 0.18 94 1016.4
20260905145648 13 174 0.0 0.0 0.00 0.00 0.18 94 1016.4
20260905144647 13 174 0.0 0.0 0.00 0.00 0.18 94 1016.4
20260905143646 13 174 0.0 0.0 0.00 0.00 0.18 94 1016.4
20260905142645 13 174 0.0 0.0 0.00 0.00 0.18 94 1016.4
20260905141644 13 174 0.0 0.0 0.00 0.00 0.18 94 1016.3
20260905135643 13 174 0.0 0.0 0.00 0.00 0.18 94 1016.3
20260905134642 13 174 0.0 0.0 0.00 0.00 0.18 94 1016.3
20260905132639 13 174 0.0 0.0 0.00 0.00 0.18 94 1016.2
20260905131638 13 174 0.0 0.0 0.00 0.00 0.18 94 1016.1
20260905130637 13 174 0.0 0.0 0.00 0.00 0.18 94 1015.9
20260905125637 13 174 0.0 0.0 0.00 0.00 0.18 94 1015.9
20260905122633 13 174 0.0 0.0 0.00 0.00 0.18 94 1015.8
20260905121632 13 174 0.0 0.0 0.00 0.00 0.18 94 1015.8
20260905115630 13 174 0.0 0.0 0.00 0.00 0.18 93 1015.7
20260905112627 13 174 0.0 0.0 0.00 0.00 0.18 93 1015.8
20260905111626 13 174 0.0 0.0 0.00 0.00 0.18 93 1015.7
20260905110625 13 174 0.0 0.0 0.00 0.00 0.18 93 1015.7
20260905104623 13 173 0.0 0.0 0.00 0.00 0.18 94 1015.7
20260905103622 13 173 0.0 0.0 0.00 0.00 0.18 94 1015.8
20260905102621 13 173 0.0 0.0 0.00 0.00 0.18 93 1015.8
20260905101620 13 173 0.0 0.0 0.00 0.00 0.18 93 1015.8
20260905100619 13 173 0.0 0.0 0.00 0.00 0.18 93 1015.8
20260905092615 13 173 0.0 0.0 0.00 0.00 0.18 94 1015.6
20260905091614 13 173 0.0 0.0 0.00 0.00 0.18 93 1015.6
20260905085612 13 173 0.0 0.0 0.00 0.00 0.18 93 1015.6
20260905084611 13 173 0.0 0.0 0.00 0.00 0.18 93 1015.6
20260905082609 13 173 0.0 0.0 0.00 0.00 0.18 93 1015.4
20260905080607 13 173 0.0 0.0 0.00 0.00 0.18 93 1015.4
20260905075606 13 173 0.0 0.0 0.00 0.00 0.18 93 1015.3
20260905074605 13 173 0.0 0.0 0.00 0.00 0.18 93 1015.3
20260905073604 13 173 0.0 0.0 0.00 0.00 0.18 93 1015.2
20260905072603 13 173 0.0 0.0 0.00 0.00 0.18 93 1015.3
20260905071602 13 173 0.0 0.0 0.00 0.00 0.18 93 1015.3
20260905070601 13 173 0.0 0.0 0.00 0.00 0.18 93 1015.1
20260905065559 13 173 0.0 0.0 0.00 0.00 0.15 93 1015.1
20260905064559 13 173 0.0 0.0 0.00 0.00 0.15 93 1015.0
20260905063557 13 173 0.0 0.0 0.00 0.00 0.15 93 1014.9
20260905062557 13 173 0.0 0.0 0.00 0.00 0.15 93 1014.8
20260905061555 13 173 0.0 0.0 0.00 0.00 0.15 93 1014.6
20260905055553 13 173 0.0 0.0 0.00 0.00 0.15 93 1014.6
20260905054552 13 173 0.0 0.0 0.00 0.00 0.15 93 1014.7
20260905053551 13 173 0.0 0.0 0.00 0.00 0.15 93 1014.6
20260905044547 13 173 0.0 0.0 0.00 0.00 0.15 93 1014.5
20260905043545 13 172 0.0 0.0 0.00 0.00 0.15 92 1014.5
20260905042544 13 172 0.0 0.0 0.00 0.00 0.15 91 1014.6
20260905041543 13 172 0.0 0.0 0.00 0.00 0.15 91 1014.5
20260905040542 13 172 0.0 0.0 0.00 0.00 0.15 91 1014.5
20260905035542 13 172 0.0 0.0 0.00 0.00 0.15 90 1014.3
20260905034541 13 172 0.0 0.0 0.00 0.00 0.15 90 1014.2
20260905033539 14 172 0.0 0.0 0.00 0.00 0.15 90 1014.1
20260905032539 14 172 0.0 0.0 0.00 0.00 0.15 90 1014.0
20260905031539 14 172 0.0 0.0 0.00 0.00 0.15 90 1013.9
20260905030536 15 172 0.0 0.0 0.00 0.00 0.15 89 1013.8
20260905025535 15 172 0.0 0.0 0.00 0.00 0.15 89 1013.7
20260905024534 15 172 0.0 0.0 0.00 0.00 0.15 89 1013.8
20260905023534 15 172 0.0 0.0 0.00 0.00 0.15 88 1013.7
20260905022532 15 172 0.0 0.0 0.00 0.00 0.15 88 1013.8
20260905021531 15 172 0.0 0.0 0.00 0.00 0.13 88 1013.8
20260905020530 16 172 0.0 0.0 0.00 0.00 0.13 88 1013.7
20260905015529 16 172 0.0 0.0 0.00 0.00 0.13 88 1013.5
20260905014528 16 172 0.0 0.0 0.00 0.00 0.13 87 1013.5
20260905012526 16 172 0.0 0.0 0.00 0.00 0.13 88 1013.3
20260905011525 16 172 0.0 0.0 0.00 0.00 0.13 88 1013.2
20260905010524 16 172 0.0 0.0 0.00 0.00 0.13 88 1013.2
20260905005523 16 172 0.0 0.0 0.00 0.00 0.13 88 1013.1
20260905003521 16 172 0.0 0.0 0.00 0.00 0.13 87 1013.1
20260905002520 16 172 0.0 0.0 0.00 0.00 0.13 88 1013.0
20260905001519 16 172 0.0 0.0 0.00 0.00 0.13 88 1013.0
20260905000518 16 172 0.0 0.0 0.00 0.00 0.10 88 1013.1
20260904235517 16 171 0.0 0.0 0.00 0.00 0.10 89 1013.2
20260904233515 16 171 0.0 0.0 0.00 0.00 0.10 89 1013.2
20260904231513 15 171 0.0 0.0 0.00 0.00 0.10 92 1013.0
20260904230512 15 171 0.0 0.0 0.00 0.00 0.10 91 1013.0
20260904225511 14 171 0.0 0.0 0.00 0.00 0.08 90 1013.0
20260904224510 14 171 0.0 0.0 0.00 0.00 0.08 90 1012.9
20260904223509 14 171 0.0 0.0 0.00 0.00 0.08 89 1013.0
20260904222508 14 171 0.0 0.0 0.00 0.00 0.08 87 1012.9
20260904220506 15 171 0.0 0.0 0.00 0.00 0.05 85 1013.0
20260904215505 16 172 0.0 0.0 0.00 0.00 0.05 85 1012.9
20260904213503 17 224 0.0 0.0 0.00 0.00 0.03 81 1012.5
20260904212502 18 224 3.2 0.0 0.00 0.00 0.03 76 1012.4
20260904211501 19 242 0.0 0.0 0.00 0.00 0.03 67 1012.1
20260904210500 20 232 0.0 0.0 0.00 0.00 0.03 63 1012.0
20260904203457 21 360 0.0 0.0 0.00 0.00 0.03 61 1011.7
20260904202456 21 360 0.0 0.0 0.00 0.00 0.03 64 1011.7
20260904201454 20 323 0.0 0.0 0.00 0.00 0.03 63 1011.8
20260904200454 19 324 0.0 0.0 0.00 0.00 0.03 70 1011.8
20260904195452 18 330 6.4 0.0 0.00 0.00 0.03 72 1011.9
20260904194451 18 331 8.0 0.0 0.00 0.00 0.03 70 1012.0
20260904193452 19 321 0.0 0.0 0.00 0.00 0.03 70 1012.0
20260904192450 19 327 4.8 0.0 0.00 0.00 0.03 71 1012.0
20260904191448 19 331 0.0 0.0 0.00 0.00 0.03 69 1012.1
20260904190447 19 330 0.0 0.0 0.00 0.00 0.03 68 1012.1
20260904185446 18 119 0.0 0.0 0.00 0.00 0.03 68 1012.1
20260904184445 18 119 0.0 0.0 0.00 0.00 0.03 67 1012.1